Showing default

IRIDIUM 159, 43578

Orbit data source: Space-Track

IRIDIUM 159, 43578 is a payload satellite owned by Iridium (US) in LEO that was launched on Wed, 25 Jul 2018 UTC via an FALCON 9 launch vehicle from the Air Force Western Test Range (AFWTR). Payload-class satellites include a variety of spacecraft equipped with specific instruments for various scientific and technological missions. These include communications satellites like Starlink; space stations such as the ISS; scientific satellites like the Hubble; Earth observation satellites from companies like Planet Labs, Umbra, and HawkEye 360; GPS; miniature CubeSats for education and research; and military/defense satellites.

Loading next visibility...
Identifier
43578, 2018-061K
Orbit
LEO
Country
Flag of USUS
Related business
Manufacturer
NGIS SSG Gilbert
Mission
Operational Commercial Communications
Bus & Motor
ELITEBUS, Unknown motor
Mass
860 kg wet, 700 kg dry
Launch date (UTC)
2018-07-25 (8 years ago)
Launch vehicle
FALCON 9
Launch site
Air Force Western Test Range (AFWTR)
Object type
Payload
Rocket body
Debris
Shape & HBR
Trap Box + 2 Pan, 4.8 m
Radar Cross Section
10.154 m², Large (>1 m²)

Expand to show TLE details & history
Last TLE update: 2 days ago

TLE from 2 days ago
0 IRIDIUM 159
1 43578U 18061K   26171.41558407  .00000069  00000-0  17727-4 0  9997
2 43578  86.3958  55.3567 0002265  84.1741 275.9713 14.34218045413845
Epoch: 2026-06-20T09:58Z
TLE epoch observation values (Epoch: 2026-06-20T09:58:26.463Z)
Latitude
-0.00003°
Longitude
-2.8841°
Altitude
780.549 km
Speed
7.464 km/s
True Right ascension
03h 41m 25s
True Declination
0° 00' 00"
Sunlit
Object was in daylight at epoch
Visualization orbit readout
Latitude
Unknown
Longitude
Unknown
Altitude
Unknown
Speed
Unknown
Apparent Right ascension
Unknown
Apparent Declination
Unknown
Sunlit
N/A
Visualization observer readout
Local Sidereal Time
21:38:08
Azimuth
Unknown
Elevation
Unknown
Doppler factor
Unknown
Orbital elements
Apogee altitude
776.251 km
Perigee altitude
773.011 km
Semi-major axis
7,152.768 km
Eccentricity
0.00023
Inclination
86.3958°
RAAN
55.3567°
Arg. of periapsis
84.1741°
True anomaly
275.94549°
Mean anomaly
275.9713°
Eccentric anomaly
275.95839°
Mean motion
3.58783 °/min
Orbital period
100.34 mins
BSTAR
0.000017727
Loading maneuver chart data...
Computing Atmospheric mass density...
Loading historical data...
Loading historical data...
Loading historical data...
Loading historical data...
Loading historical data...
Loading historical data...
Loading historical data...

Documentation

Showing up to 5 results
|